Flag for U.S.A. Weather past 2 weeks in New Orleans, Louisiana, U.S.A.

Now
87 °F

Sunny.


Feels Like: 97 °F
Forecast: 73 / 91 °F
Wind: 6 mph from Southeast

Location: Lakefront Airport

Current Time: Jul 6, 2015 at 11:52:17 AM

Latest Report: Jul 6, 2015 at 10:53 AM


Visibility: 10 mi

Pressure: 30.16 "Hg

Humidity: 67%

Dew point: 75 °F

Location of New OrleansLocation

Historic Weather in New Orleans — Graph

°F

New Orleans temperature yesterday

Maximum temperature yesterday: 93 °F (at 1:53 PM)
Minimum temperature yesterday: 75 °F (at 9:53 PM)
Average temperature yesterday: 83 °F

Past Weeks' High & Low Weather Summary

 TemperatureHumidityPressure
High96 °F (Jun 30, 2:53 PM)85% (Jun 29, 2:53 AM)30.17 "Hg (Jun 29, 2:53 AM)
Low75 °F (Jul 5, 9:53 PM)42% (Jul 2, 4:53 PM)29.92 "Hg (Jun 27, 6:53 PM)
Average85 °F68%30.05 "Hg
* Reported Jun 21 9:53 AM — Jul 6 9:53 AM, New Orleans, Weather by CustomWeather, © 2015

Note: Actual official high and low records may vary slightly from our data, if they occured in-between our weather recording intervals... More about our weather records

Advertising

New Orleans weather history for previous 24 hours

 ConditionsComfort  
Time TempWeatherWind HumidityBarometerVisibility
9:53 AM
Mon, Jul 6
85 °FPassing clouds.6 mph70%30.16 "Hg10 mi
8:53 AM83 °FSunny.3 mph72%30.16 "Hg10 mi
7:53 AM82 °FSunny.3 mph74%30.16 "Hg10 mi
6:53 AM81 °FClear.5 mph77%30.14 "Hg10 mi
5:53 AM80 °FClear.3 mph76%30.11 "Hg10 mi
4:53 AM79 °FClear.5 mph79%30.09 "Hg10 mi
3:53 AM78 °FClear.3 mph76%30.07 "Hg10 mi
2:53 AM77 °FClear.6 mph79%30.07 "Hg9 mi
1:53 AM77 °FClear.7 mph77%30.08 "Hg10 mi
12:53 AM77 °FClear.12 mph74%30.07 "Hg10 mi
11:53 PM
Sun, Jul 5
76 °FClear.13 mph74%30.07 "Hg10 mi
10:53 PM76 °FClear.9 mph74%30.09 "Hg10 mi
9:53 PM75 °FClear.13 mph76%30.06 "Hg10 mi
8:53 PM76 °FSunny.10 mph77%30.12 "Hg10 mi
7:53 PM77 °FSunny.13 mph77%30.16 "Hg10 mi
6:53 PM76 °FMostly cloudy.24 mph85%30.17 "Hg10 mi
6:01 PM77 °FHeavy rain. Dense fog.33 mph85%30.17 "Hg1 mi
5:04 PM80 °FHeavy rain. Cloudy.43 mph76%30.08 "Hg1 mi
5:00 PM83 °FRain. Mostly cloudy.43 mph74%30.08 "Hg1 mi
3:53 PM93 °FScattered clouds.8 mph56%30.05 "Hg10 mi
2:53 PM93 °FSunny.9 mph58%30.05 "Hg10 mi
1:53 PM93 °FPartly sunny.9 mph58%30.08 "Hg10 mi
12:53 PM91 °FPartly sunny.9 mph60%30.10 "Hg10 mi
11:53 AM90 °FPartly sunny.10 mph59%30.10 "Hg10 mi
Weather by CustomWeather, © 2015

See weather overviewHow to use our weather pages